Location: Passau
(48.5830°N, 13.4830°E)
Time: 13:26:26
(UTC+02:00)

Courier 1B - Pass Details

Date: 06 August 2021
Orbit: 963 x 1209 km, 28.3° (Epoch: 21 September)

Event Time Altitude Azimuth Distance (km) Brightness Sun altitude
Rises 21:54:09 0° 245° (WSW) 4,107 11.1 -11.5°
Reaches altitude 10° 21:59:44 10° 213° (SSW) 3,130 10.0 -12.2°
Maximum altitude 22:01:48 11° 198° (SSW) 3,028 9.8 -12.5°
Drops below altitude 10° 22:03:52 10° 182° (S) 3,107 9.7 -12.7°
Enters shadow 22:05:23 - 171° (S) 3,271 9.8 -12.9°
